[keps] orb07144.amsat

Ray Hoad r.hoad at att.net
Thu May 24 19:19:05 PDT 2007


SB KEPS @ AMSAT  $ORB07144.O
Orbital Elements  07144.OSCAR

HR AMSAT ORBITAL ELEMENTS FOR OSCAR SATELLITES
FROM WA5QGD FORT WORTH,TX May 24, 2007
Send SUBSCRIBE KEPS/UNSUBSCRIBE KEPS to majordomo at amsat.org only
BID: ORB07144.O
TO ALL RADIO AMATEURS BT

Satellite: AO-07
Catalog number: 07530
Epoch time:      07143.64089497
Element set:     882
Inclination:      101.5159 deg
RA of node:       182.3702 deg
Eccentricity:    0.0011801
Arg of perigee:   304.9465 deg
Mean anomaly:     055.0498 deg
Mean motion:   12.53572514 rev/day
Decay rate:       -2.8e-07 rev/day^2
Epoch rev:           48804
Checksum:              301

Satellite: AO-10
Catalog number: 14129
Epoch time:      07144.74278278
Element set:     382
Inclination:      026.5453 deg
RA of node:       275.3917 deg
Eccentricity:    0.6061344
Arg of perigee:   024.8668 deg
Mean anomaly:     354.9398 deg
Mean motion:   02.05869628 rev/day
Decay rate:      .00000000 rev/day^2
Epoch rev:           18008
Checksum:              316

Satellite: UO-11
Catalog number: 14781
Epoch time:      07144.31769698
Element set:     379
Inclination:      098.1907 deg
RA of node:       166.5592 deg
Eccentricity:    0.0007951
Arg of perigee:   245.9205 deg
Mean anomaly:     114.1168 deg
Mean motion:   14.79553403 rev/day
Decay rate:       2.71e-06 rev/day^2
Epoch rev:           24620
Checksum:              321

Satellite: RS-15
Catalog number: 23439
Epoch time:      07143.94728400
Element set:    0070
Inclination:      064.8197 deg
RA of node:       046.1186 deg
Eccentricity:    0.0159953
Arg of perigee:   195.1122 deg
Mean anomaly:     164.4990 deg
Mean motion:   11.27551746 rev/day
Decay rate:       -3.9e-07 rev/day^2
Epoch rev:           51096
Checksum:              314

Satellite: FO-29
Catalog number: 24278
Epoch time:      07143.94765267
Element set:    0518
Inclination:      098.5490 deg
RA of node:       106.8510 deg
Eccentricity:    0.0351013
Arg of perigee:   145.9995 deg
Mean anomaly:     216.4182 deg
Mean motion:   13.52930232 rev/day
Decay rate:       -3.6e-07 rev/day^2
Epoch rev:           53162
Checksum:              312

Satellite: SO-33
Catalog number: 25509
Epoch time:      07143.86889728
Element set:    0935
Inclination:      031.4321 deg
RA of node:       003.2366 deg
Eccentricity:    0.0355803
Arg of perigee:   214.8065 deg
Mean anomaly:     142.8799 deg
Mean motion:   14.28164932 rev/day
Decay rate:      -1.84e-06 rev/day^2
Epoch rev:           44777
Checksum:              332

Satellite: AO-40
Catalog number: 26609
Epoch time:      07140.47029464
Element set:     879
Inclination:      005.3591 deg
RA of node:       146.1098 deg
Eccentricity:    0.7989377
Arg of perigee:   318.3177 deg
Mean anomaly:     002.7570 deg
Mean motion:   01.25586965 rev/day
Decay rate:      -1.31e-06 rev/day^2
Epoch rev:            3009
Checksum:              327

Satellite: VO-52
Catalog number: 28650
Epoch time:      07144.39955727
Element set:     634
Inclination:      097.8317 deg
RA of node:       215.6473 deg
Eccentricity:    0.0026740
Arg of perigee:   333.6315 deg
Mean anomaly:     026.3504 deg
Mean motion:   14.81313602 rev/day
Decay rate:       -8.6e-07 rev/day^2
Epoch rev:           11089
Checksum:              304

Satellite: PO-63
Catalog number: 29712
Epoch time:      07144.78008633
Element set:     390
Inclination:      097.9215 deg
RA of node:       204.2620 deg
Eccentricity:    0.0013681
Arg of perigee:   199.8704 deg
Mean anomaly:     160.1982 deg
Mean motion:   14.79691187 rev/day
Decay rate:       7.24e-06 rev/day^2
Epoch rev:            1987
Checksum:              327

/EX
SB KEPS @ AMSAT  $ORB07144.D
Orbital Elements  07144.MICROS

HR AMSAT ORBITAL ELEMENTS FOR THE MICROSATS
FROM WA5QGD FORT WORTH,TX May 24, 2007
Send SUBSCRIBE KEPS/UNSUBSCRIBE KEPS to majordomo at amsat.org only
BID: ORB07144.D
TO ALL RADIO AMATEURS BT

Satellite: AO-16
Catalog number: 20439
Epoch time:      07144.53953899
Element set:      41
Inclination:      098.1948 deg
RA of node:       140.3999 deg
Eccentricity:    0.0009925
Arg of perigee:   258.4021 deg
Mean anomaly:     101.6053 deg
Mean motion:   14.31760127 rev/day
Decay rate:        1.1e-07 rev/day^2
Epoch rev:           90516
Checksum:              300

Satellite: LO-19
Catalog number: 20442
Epoch time:      07143.95310449
Element set:    0968
Inclination:      098.1794 deg
RA of node:       149.2298 deg
Eccentricity:    0.0010846
Arg of perigee:   258.5876 deg
Mean anomaly:     101.4098 deg
Mean motion:   14.32000874 rev/day
Decay rate:        3.4e-07 rev/day^2
Epoch rev:           90522
Checksum:              316

Satellite: AO-27
Catalog number: 22825
Epoch time:      07143.97498399
Element set:    0691
Inclination:      098.3281 deg
RA of node:       114.9141 deg
Eccentricity:    0.0008274
Arg of perigee:   341.2864 deg
Mean anomaly:     018.7999 deg
Mean motion:   14.29208166 rev/day
Decay rate:       -9.5e-07 rev/day^2
Epoch rev:           71203
Checksum:              339

Satellite: IO-26
Catalog number: 22826
Epoch time:      07143.46649631
Element set:    0388
Inclination:      098.3228 deg
RA of node:       115.5102 deg
Eccentricity:    0.0008654
Arg of perigee:   339.7767 deg
Mean anomaly:     020.3071 deg
Mean motion:   14.29454604 rev/day
Decay rate:       -5.0e-08 rev/day^2
Epoch rev:           71204
Checksum:              297

Satellite: PO-28
Catalog number: 22829
Epoch time:      07144.41405795
Element set:     665
Inclination:      098.3105 deg
RA of node:       117.5850 deg
Eccentricity:    0.0008995
Arg of perigee:   307.4994 deg
Mean anomaly:     052.5371 deg
Mean motion:   14.30154430 rev/day
Decay rate:       -7.0e-07 rev/day^2
Epoch rev:           71241
Checksum:              303

Satellite: GO-32
Catalog number: 25397
Epoch time:      07144.25545889
Element set:     308
Inclination:      098.4149 deg
RA of node:       192.5149 deg
Eccentricity:    0.0000758
Arg of perigee:   348.9267 deg
Mean anomaly:     011.1888 deg
Mean motion:   14.23124996 rev/day
Decay rate:      -1.19e-06 rev/day^2
Epoch rev:           46075
Checksum:              341

Satellite: MO-46
Catalog number: 26548
Epoch time:      07143.77512912
Element set:    0802
Inclination:      064.5573 deg
RA of node:       258.1850 deg
Eccentricity:    0.0018712
Arg of perigee:   199.7063 deg
Mean anomaly:     160.3318 deg
Mean motion:   14.83140188 rev/day
Decay rate:       1.21e-06 rev/day^2
Epoch rev:           35992
Checksum:              309

Satellite: NO-44
Catalog number: 26931
Epoch time:      07143.67021513
Element set:    0594
Inclination:      067.0519 deg
RA of node:       210.6437 deg
Eccentricity:    0.0007630
Arg of perigee:   270.9373 deg
Mean anomaly:     089.0865 deg
Mean motion:   14.29485117 rev/day
Decay rate:        5.6e-07 rev/day^2
Epoch rev:           29459
Checksum:              314

Satellite: SO-50
Catalog number: 27607
Epoch time:      07144.40092334
Element set:     319
Inclination:      064.5570 deg
RA of node:       157.2531 deg
Eccentricity:    0.0051209
Arg of perigee:   006.7122 deg
Mean anomaly:     353.4631 deg
Mean motion:   14.71258079 rev/day
Decay rate:       -4.9e-07 rev/day^2
Epoch rev:           23762
Checksum:              281

Satellite: CO-55
Catalog number: 27844
Epoch time:      07143.59238955
Element set:    0034
Inclination:      098.7180 deg
RA of node:       152.2312 deg
Eccentricity:    0.0009938
Arg of perigee:   157.0657 deg
Mean anomaly:     203.0956 deg
Mean motion:   14.20511767 rev/day
Decay rate:        5.1e-07 rev/day^2
Epoch rev:           20198
Checksum:              308

Satellite: CO-57
Catalog number: 27848
Epoch time:      07144.52561778
Element set:     994
Inclination:      098.7177 deg
RA of node:       152.3556 deg
Eccentricity:    0.0009833
Arg of perigee:   157.9676 deg
Mean anomaly:     202.1922 deg
Mean motion:   14.20330827 rev/day
Decay rate:        3.5e-07 rev/day^2
Epoch rev:           20209
Checksum:              330

Satellite: AO-51
Catalog number: 28375
Epoch time:      07143.63276048
Element set:    0822
Inclination:      098.1144 deg
RA of node:       184.2146 deg
Eccentricity:    0.0083133
Arg of perigee:   257.3817 deg
Mean anomaly:     101.8070 deg
Mean motion:   14.40567564 rev/day
Decay rate:        2.6e-07 rev/day^2
Epoch rev:           15218
Checksum:              293

Satellite: CO-56
Catalog number: 28941
Epoch time:      07144.60224168
Element set:     446
Inclination:      098.1304 deg
RA of node:       203.0748 deg
Eccentricity:    0.0227755
Arg of perigee:   356.9867 deg
Mean anomaly:     003.0132 deg
Mean motion:   15.39243912 rev/day
Decay rate:     2.3264e-04 rev/day^2
Epoch rev:            6980
Checksum:              311

Satellite: HO-59
Catalog number: 29484
Epoch time:      07144.61948693
Element set:     350
Inclination:      098.2848 deg
RA of node:       190.8257 deg
Eccentricity:    0.0212218
Arg of perigee:   350.9063 deg
Mean anomaly:     008.8655 deg
Mean motion:   15.49975643 rev/day
Decay rate:     6.4932e-04 rev/day^2
Epoch rev:            3742
Checksum:              357

Satellite: NO-60
Catalog number: 29661
Epoch time:      07144.78377389
Element set:     292
Inclination:      051.6307 deg
RA of node:       206.1898 deg
Eccentricity:    0.0007522
Arg of perigee:   333.4455 deg
Mean anomaly:     026.6230 deg
Mean motion:   16.21471453 rev/day
Decay rate:    9.57892e-03 rev/day^2
Epoch rev:            2468
Checksum:              330

Satellite: NO-61
Catalog number: 29664
Epoch time:      07144.24296690
Element set:     177
Inclination:      051.6311 deg
RA of node:       218.4966 deg
Eccentricity:    0.0012128
Arg of perigee:   255.4084 deg
Mean anomaly:     104.5586 deg
Mean motion:   15.90113914 rev/day
Decay rate:     3.7559e-04 rev/day^2
Epoch rev:            2434
Checksum:              311

